DECAYED

STARLINK-1594, 46140 (Decayed)

Orbit data source: Space-Track

STARLINK-1594, 46140 was a payload satellite owned by SpaceX/Seattle (US) in LEO that was launched on Tue, 18 Aug 2020 UTC via an FALCON 9 launch vehicle from the Air Force Eastern Test Range (AFETR). Payload-class satellites include a variety of spacecraft equipped with specific instruments for various scientific and technological missions. These include communications satellites like Starlink; space stations such as the ISS; scientific satellites like the Hubble; Earth observation satellites from companies like Planet Labs, Umbra, and HawkEye 360; GPS; miniature CubeSats for education and research; and military/defense satellites.

Not visible in the next 10 days
Identifier
46140, 2020-057Z
Orbit
Decayed
Country
Flag of USUS
Related business
Manufacturer
SpaceX/Seattle
Mission
Decayed Commercial Communications
Bus & Motor
STARLINK, Unknown motor
Mass
260 kg wet, ~248 kg dry
Launch date (UTC)
2020-08-18 (5 years ago)
Launch vehicle
FALCON 9
Launch site
Air Force Eastern Test Range (AFETR)
Object type
Payload
Rocket body
Debris
Shape & HBR
Box + 1 Pan, 10.1 m
Radar Cross Section
13.562 m², Large (>1 m²)

Expand to show TLE details & history
Last TLE update: 8 months ago

TLE from 8 months ago
0 STARLINK-1594
1 46140U 20057Z   25035.91221297  .11679427  12311-4  10036-2 0  9998
2 46140  53.0190 226.3182 0006692 263.8600 246.7548 16.38561209247692
Epoch: 2025-02-04T21:53Z
TLE epoch observation values (Epoch: 2025-02-04T21:53:35.200Z)
Latitude
23.19321°
Longitude
-76.09982°
Altitude
172.14 km
Speed
7.805 km/s
True Right ascension
01h 50m 25s
True Declination
23° 03' 28"
Sunlit
Object was in daylight at epoch
Visualization orbit readout
Latitude
Unknown
Longitude
Unknown
Altitude
Unknown
Speed
Unknown
Apparent Right ascension
Unknown
Apparent Declination
Unknown
Sunlit
N/A
Visualization observer readout
Local Sidereal Time
11:59:20
Azimuth
Unknown
Elevation
Unknown
Doppler factor
Unknown
Orbital elements
Apogee altitude
174.307 km
Perigee altitude
165.543 km
Semi-major axis
6,548.062 km
Eccentricity
0.00067
Inclination
53.019°
RAAN
226.3182°
Arg. of periapsis
263.86°
True anomaly
246.68436°
Mean anomaly
246.7548°
Eccentric anomaly
246.71958°
Mean motion
4.09613 °/min
Orbital period
87.89 mins
BSTAR
0.0010036
Loading maneuver chart data...
Computing Atmospheric mass density...

Documentation

Showing up to 5 results
|